www.pogodaiklimat.ru

Погода и климат >> Архив погоды >> Австралия >> Западная Австралия >> Маунт Магнет


ПОГОДА в Маунт Магнет

  • Прогноз погоды в Маунт Магнет
  • Монитор погоды в Маунт Магнет

АРХИВ ПОГОДЫ в Маунт Магнет

Время (UTC), дата Ветер
(напр.,м/с)
 
Видим.   Явления Облачность Т
(С)
Тd
(С)
f
(%)
Тe
(С)
Тes
(С)
Комфортность P
(гПа)
Po
(гПа)
Тmin
(С)
Tmax
(С)
R
(мм)
R24
(мм)
S
(см)
22 16.01 ЮЗ 4 н/о н/о +20.9 +9.5 48 +23 +23 комфорт 1007.9 963.1
00 17.01 Ю 4 н/о н/о +23.3 +9.7 42 +25 +25 комфорт 1009.3 964.4
01 17.01 ЮЗ 3 н/о н/о +25.5 +8.9 35 +26 +26 жарко 1009.4 964.5 +20.9
03 17.01 Ю 5 н/о н/о +33.3 +5.0 17 +31 +31 жарко 1008.9 964.0
04 17.01 ЮЗ 6 н/о н/о +34.2 +2.9 14 +31 +31 жарко 1008.6 963.7
06 17.01 ЮЗ 6 н/о н/о +35.9 +0.9 11 +32 +32 жарко 1007.2 962.4
07 17.01 ЮЗ 5 н/о н/о +36.6 +0.1 10 +33 +33 жарко 1006.4 961.6
09 17.01 З 7 н/о н/о +36.9 -1.1 9 +33 +33 жарко 1005.5 960.8
10 17.01 ЮЗ 7 н/о н/о +36.2 +1.1 11 +33 +33 жарко 1005.8 961.1
12 17.01 Ю 6 н/о н/о +33.7 -0.8 11 +30 +30 жарко 1007.4 962.6
13 17.01 Ю 4 н/о н/о +32.3 -0.7 12 +29 +29 жарко 1008.1 963.3 +39.0
15 17.01 Ю 5 н/о н/о +30.0 +3.1 18 +28 +28 жарко 1008.8 963.9
16 17.01 Ю 6 н/о н/о +28.8 +4.3 21 +27 +27 жарко 1009.1 964.2
18 17.01 Ю 6 н/о н/о +25.3 +8.7 35 +26 +26 жарко 1009.2 964.3
19 17.01 Ю 4 н/о н/о +24.4 +9.6 39 +25 +25 комфорт 1009.2 964.3
21 17.01 Ю 4 н/о н/о +22.3 +9.8 45 +24 +24 комфорт 1010.2 965.3
22 17.01 Ю 3 н/о н/о +22.1 +9.6 45 +24 +24 комфорт 1010.9 965.9
00 18.01 В 7 н/о н/о +26.2 +9.5 35 +27 +27 жарко 1011.6 966.6
01 18.01 ЮВ 7 н/о н/о +28.8 +10.0 31 +29 +29 жарко 1011.7 966.7 +21.9
03 18.01 В 6 н/о н/о +32.7 +8.9 23 +32 +32 жарко 1011.5 966.5
04 18.01 ЮВ 6 н/о н/о +33.2 +7.2 20 +31 +31 жарко 1010.7 965.7
06 18.01 ЮВ 4 н/о н/о +35.6 +1.8 12 +32 +32 жарко 1009.2 964.3
07 18.01 ЮВ 5 н/о н/о +36.8 +1.5 11 +33 +33 жарко 1008.7 963.8
09 18.01 В 4 н/о н/о +37.5 -0.7 9 +34 +34 очень
жарко
1008.0 963.2
10 18.01 ЮВ 6 н/о н/о +37.2 +1.8 11 +34 +34 очень
жарко
1008.5 963.6
12 18.01 ЮВ 4 н/о н/о +34.5 +4.1 15 +32 +32 жарко 1009.9 965.0
13 18.01 ЮВ 4 н/о н/о +32.9 +3.8 16 +30 +30 жарко 1010.5 965.6 +38.5
15 18.01 ЮВ 4 н/о н/о +30.7 +5.2 20 +29 +29 жарко 1011.1 966.1
16 18.01 В 4 н/о н/о +29.8 +5.1 21 +28 +28 жарко 1011.0 966.0
18 18.01 В 6 н/о н/о +29.9 +8.9 27 +29 +29 жарко 1010.7 965.7
19 18.01 В 7 н/о н/о +29.5 +9.6 29 +29 +29 жарко 1011.1 966.1
21 18.01 В 6 н/о н/о +28.3 +9.6 31 +28 +28 жарко 1012.0 967.0
22 18.01 В 5 н/о н/о +28.1 +9.9 32 +28 +28 жарко 1012.7 967.7
00 19.01 В 9 н/о н/о +30.6 +10.5 29 +31 +31 жарко 1013.4 968.3
01 19.01 В 7 н/о н/о +32.4 +10.4 26 +32 +32 жарко 1013.6 968.5 +26.3
03 19.01 В 6 н/о н/о +35.4 +7.5 18 +33 +33 жарко 1012.6 967.6
04 19.01 В 8 н/о н/о +37.4 +6.4 15 +35 +35 очень
жарко
1011.7 966.7
06 19.01 С 3 н/о н/о +38.4 +5.1 13 +36 +36 очень
жарко
1009.8 964.9
07 19.01 ЮВ 5 н/о н/о +38.5 +2.8 11 +35 +35 очень
жарко
1009.2 964.3
09 19.01 В 6 н/о н/о +39.0 +3.2 11 +36 +36 очень
жарко
1008.6 963.7
10 19.01 В 5 н/о н/о +39.1 +3.3 11 +36 +36 очень
жарко
1008.8 963.9
12 19.01 В 4 н/о н/о +36.9 +4.0 13 +34 +34 очень
жарко
1009.8 964.9
13 19.01 В 5 н/о н/о +35.7 +4.1 14 +33 +33 жарко 1010.3 965.4 +40.3
15 19.01 В 5 н/о н/о +33.6 +4.3 16 +31 +31 жарко 1010.4 965.5
16 19.01 В 4 н/о н/о +32.5 +5.1 18 +30 +30 жарко 1010.2 965.3
18 19.01 СВ 3 н/о н/о +30.1 +6.1 22 +29 +29 жарко 1010.0 965.1
19 19.01 СВ 4 н/о н/о +29.8 +6.5 23 +29 +29 жарко 1010.3 965.4
21 19.01 СВ 5 н/о н/о +29.3 +8.4 27 +29 +29 жарко 1011.4 966.4
22 19.01 СВ 5 н/о н/о +29.1 +9.8 30 +29 +29 жарко 1012.1 967.1
00 20.01 СВ 8 н/о н/о +32.1 +11.8 29 +32 +32 жарко 1012.9 967.8
01 20.01 СВ 7 н/о н/о +33.9 +11.7 26 +34 +34 очень
жарко
1013.0 967.9 +28.9
03 20.01 СВ 5 н/о н/о +36.6 +8.4 18 +35 +35 очень
жарко
1011.9 966.9
04 20.01 СВ 6 н/о н/о +37.9 +6.8 15 +35 +35 очень
жарко
1011.0 966.0
06 20.01 В 4 н/о н/о +40.4 +5.5 12 +38 +38 очень
жарко
1009.2 964.3
07 20.01 ЮЗ 3 н/о н/о +40.1 +2.7 10 +37 +37 очень
жарко
1008.4 963.5
09 20.01 ЮВ 4 н/о н/о +40.8 +3.2 10 +38 +38 очень
жарко
1007.4 962.6
10 20.01 В 3 н/о н/о +40.4 +1.4 9 +37 +37 очень
жарко
1007.2 962.4
12 20.01 ЮВ 4 н/о н/о +38.1 +1.2 10 +35 +35 очень
жарко
1008.5 963.6
13 20.01 В 4 н/о н/о +36.0 +0.9 11 +32 +32 жарко 1008.8 963.9 +41.8
15 20.01 В 4 н/о н/о +34.4 +2.0 13 +31 +31 жарко 1008.7 963.8
16 20.01 В 3 н/о н/о +32.7 +2.7 15 +30 +30 жарко 1008.4 963.5
18 20.01 СВ 3 н/о н/о +29.9 +3.8 19 +28 +28 жарко 1007.7 962.9
19 20.01 СВ 4 н/о н/о +30.6 +6.5 22 +29 +29 жарко 1007.6 962.8
21 20.01 СВ 3 н/о н/о +28.6 +7.8 27 +28 +28 жарко 1007.8 963.0
22 20.01 СВ 3 н/о н/о +29.6 +8.1 26 +29 +29 жарко 1008.4 963.5
00 21.01 СВ 8 н/о н/о +35.4 +9.0 20 +34 +34 очень
жарко
1008.9 964.0
01 21.01 СВ 7 н/о н/о +37.2 +8.9 18 +35 +35 очень
жарко
1008.9 964.0 +28.6
03 21.01 ЮВ 4 н/о н/о +39.9 +2.5 10 +36 +36 очень
жарко
1007.9 963.1
04 21.01 ЮЗ 3 н/о н/о +40.2 +2.8 10 +37 +37 очень
жарко
1007.1 962.3
06 21.01 С 5 н/о н/о +42.0 +1.0 8 +38 +38 очень
жарко
1005.1 960.4
07 21.01 В 6 н/о н/о +42.9 -0.2 7 +39 +39 очень
жарко
1004.1 959.4
09 21.01 СВ 3 н/о н/о +42.6 +1.4 8 +39 +39 очень
жарко
1002.8 958.2
10 21.01 СВ 3 н/о н/о +42.5 +1.3 8 +39 +39 очень
жарко
1002.6 958.0
12 21.01 В 3 н/о н/о +39.1 +0.5 9 +35 +35 очень
жарко
1003.4 958.8
13 21.01 СВ 3 н/о н/о +37.2 +0.5 10 +34 +34 очень
жарко
1003.5 958.9 +44.0
15 21.01 ЮЗ 6 н/о н/о +35.0 +4.5 15 +32 +32 жарко 1003.6 959.0
16 21.01 Ю 7 н/о н/о +35.1 +7.2 18 +33 +33 жарко 1003.1 958.5
18 21.01 Ю 3 н/о н/о +32.3 +6.5 20 +30 +30 жарко 1002.3 957.7
19 21.01 ЮЗ 3 н/о н/о +30.4 +6.3 22 +29 +29 жарко 1002.3 957.7
21 21.01 ЮЗ 4 н/о н/о +28.2 +4.5 22 +27 +27 жарко 1001.9 957.3
22 21.01 ЮЗ 3 н/о н/о +27.8 +4.2 22 +26 +26 жарко 1002.0 957.4
00 22.01 ЮЗ 3 н/о н/о +30.6 +3.6 18 +28 +28 жарко 1002.0 957.4
01 22.01 ЮЗ 2 н/о н/о +33.4 +4.2 16 +31 +31 жарко 1001.5 957.0 +27.6
03 22.01 З 4 н/о н/о +37.1 +4.1 13 +34 +34 очень
жарко
1000.6 956.1
04 22.01 З 5 н/о н/о +40.6 +4.4 11 +38 +38 очень
жарко
1000.1 955.6
06 22.01 З 8 н/о н/о +39.4 +7.0 14 +37 +37 очень
жарко
999.4 954.9
07 22.01 З 10 н/о н/о +39.5 +8.1 15 +37 +37 очень
жарко
999.0 954.6
09 22.01 ЮЗ 9 н/о н/о +37.6 +7.5 16 +35 +35 очень
жарко
999.0 954.6
10 22.01 З 11 н/о н/о +36.3 +10.5 21 +35 +35 очень
жарко
999.9 955.4
12 22.01 З 8 н/о н/о +31.5 +6.5 21 +30 +30 жарко 1002.0 957.4
13 22.01 З 6 н/о н/о +30.3 +9.2 27 +30 +30 жарко 1002.4 957.8 +41.7
15 22.01 З 7 н/о н/о +25.7 +9.5 36 +26 +26 жарко 1003.6 959.0
16 22.01 З 7 н/о н/о +23.8 +11.8 47 +25 +25 комфорт 1003.9 959.2
18 22.01 ЮЗ 8 н/о н/о +20.1 +13.1 64 +22 +22 комфорт 1003.5 958.9
19 22.01 ЮЗ 7 н/о н/о +19.4 +12.7 65 +20 +20 1004.0 959.3
21 22.01 ЮЗ 6 н/о н/о +18.4 +10.5 60 +18 +18 1004.4 959.7
22 22.01 ЮЗ 6 н/о н/о +17.7 +10.3 62 +17 +17 1005.3 960.6
00 23.01 ЮЗ 7 н/о н/о +19.0 +10.3 57 +19 +19 1006.3 961.5
01 23.01 ЮЗ 6 н/о н/о +20.7 +9.3 48 +22 +22 комфорт 1006.9 962.1 +17.5
03 23.01 З 7 н/о н/о +23.9 +8.3 37 +24 +24 комфорт 1006.6 961.8
04 23.01 ЮЗ 6 н/о н/о +24.5 +8.0 35 +25 +25 комфорт 1006.4 961.6
06 23.01 З 7 н/о н/о +27.7 +4.1 22 +26 +26 жарко 1005.2 960.5
07 23.01 З 7 н/о н/о +28.2 +2.4 19 +26 +26 жарко 1005.1 960.4
09 23.01 ЮЗ 8 н/о н/о +28.7 +2.1 18 +27 +27 жарко 1004.1 959.4
10 23.01 ЮЗ 8 н/о н/о +27.8 +2.1 19 +26 +26 жарко 1004.2 959.5
12 23.01 ЮЗ 6 н/о н/о +25.3 +2.7 23 +24 +24 комфорт 1005.9 961.2
13 23.01 ЮЗ 8 н/о н/о +23.7 +4.1 28 +23 +23 комфорт 1006.9 962.1 +31.6
15 23.01 ЮЗ 7 н/о н/о +20.9 +3.2 31 +21 +21 комфорт 1008.0 963.2
16 23.01 ЮЗ 8 н/о н/о +19.5 +4.8 38 +19 +19 1007.7 962.9
18 23.01 ЮЗ 7 н/о н/о +17.3 +8.2 55 +16 +16 1007.7 962.9
19 23.01 ЮЗ 7 н/о н/о +16.6 +8.3 58 +15 +15 1007.9 963.1
21 23.01 Ю 5 н/о н/о +15.7 +9.6 67 +15 +15 1008.7 963.8

 

Местоположение метеостанции Маунт Магнет (Западная Австралия, Австралия): широта -28.11 долгота 117.83 высота над уровнем моря 408 м.

В архиве по умолчанию представлена погода в Маунт Магнет за последнюю неделю. Архивные данные за месяц целиком и за предыдущие месяцы, начиная с января 2011 года, Вы можете получить, выбрав интересующий диапазон дат из раскрывающегося списка и нажав кнопку "Ввод!".


*Определитесь, кто Вы:
робот инопланетянин человек

Внимание! Время в таблицах - всемирное. Для получения местного времени необходимо прибавить поправку, которая равна 8 ч.

Смотрите также архив погоды в соседних городах и на ближайших метеорологических станциях:

Погода в Микатарре (Западная Австралия, Австралия) (181 км)
Погода в Мораве (Западная Австралия, Австралия) (214 км)
Погода в Дауоллину (Западная Австралия, Австралия) (266 км)
Погода в Леинстере (Западная Австралия, Австралия) (283 км)
Погода в Джеральдтоне (Западная Австралия, Австралия) (316 км)
Погода в Баджингарре (Западная Австралия, Австралия) (333 км)
Погода в Леоноре (Западная Австралия, Австралия) (352 км)
Погода в Саутерн Кросс (Западная Австралия, Австралия) (377 км)
Погода в Кандердине (Западная Австралия, Австралия) (395 км)
Погода в Гингине (Западная Австралия, Австралия) (419 км)

Пояснения к столбцам:

Ветер - указаны скорость ветра в м/с - средняя за 10 мин, порывы в срок и между сроками (в фигурных скобках) и направление, откуда дует ветер: С - северный, СВ - северо-восточный, В - восточный, ЮВ - юго-восточный, Ю - южный, ЮЗ - юго-западный, З - западный, СЗ - северо-западный.
Видимость - горизонтальная дальность видимости в метрах или километрах. При видимости от 1 до 10 км при отсутствии осадков обычно наблюдается дымка, при ухудшении видимости до 1 км и менее - туман. В сухую погоду видимость может ухудшаться дымом, пылью или мглою.
Явления - указаны атмосферные явления, наблюдавшиеся в срок или в последний час перед сроком; фигурными скобками обозначены явления, наблюдавшиеся между сроками (за 1-3 часа до срока); квадратными скобками обозначены град или гололедные отложения с указанием их диаметра в мм.
Облачность - указаны через наклонную черту общая и нижняя облачность в баллах и высота нижней границы облаков в метрах; квадратными скобками обозначены формы облаков: Ci - перистые, Cs - перисто-слоистые, Cc - перисто-кучевые, Ac - высококучевые, As - высокослоистые, Sc - слоисто-кучевые, Ns - слоисто-дождевые, Cu - кучевые, Cb - кучево-дождевые. Подробнее классификацию облаков см. в Атласе облаков (PDF).
T - Температура воздуха - температура, измеренная на высоте 2 м над землей.
Td - Температура точки росы - температура, при понижении до которой содержащийся в воздухе водяной пар достигнет насыщения.
f - Относительная влажность воздуха - влажноcть воздуха, измеренная на высоте 2 м над землей.
Te - Эффективная температура - температура, которую ощущает одетый по сезону человек в тени. Характеристика душности погоды. При расчете учитывается влияние влажности воздуха и скорости ветра на теплоощущения человека.
Tes - Эффективная температура на солнце - температура, которую ощущает человек, с поправкой на солнечный нагрев. Характеристика знойности погоды. Зависит от высоты солнца над горизонтом, облачности и скорости ветра. Ночью, в пасмурную погоду, а также при ветре 12 м/с и более поправка равна нулю.
P - Атмосферное давление - приведенное к уровню моря атмосферное давление.
Po - Атмосферное давление - измеренное на уровне метеостанции атмосферное давление.
Tmin - Минимальная температура - минимум температуры воздуха на высоте 2 м над землей.
Tmax - Максимальная температура - максимум температуры воздуха на высоте 2 м над землей.
R - Количество осадков - Количество выпавших осадков за период времени, мм. При наведении курсора мыши на число - период времени, за который выпало указанное количество осадков.
R24 - Количество осадков - Количество выпавших осадков за 24 часа, мм.
S - Снежный покров - Высота снежного покрова, см. При наведении курсора мыши на число - состояние снежного покрова и степень покрытия местности в баллах.